Location: Arbocrest Acres
(39.2134°N, 84.4144°W)
Time: 07:51:48
(UTC+00:00)

X-37B - Pass Details

Date: 10 December 2022
Orbit: 277 x 277 km, 45.0° (Epoch: 01 November)

Event Time Altitude Azimuth Distance (km) Brightness Sun altitude
Rises 23:30:23 0° 272° (W) 1,911 5.5 -14.2°
Reaches altitude 10° 23:32:27 10° 286° (WNW) 1,100 3.7 -14.6°
Maximum altitude 23:34:36 26° 348° (NNW) 595 1.4 -15.0°
Enters shadow 23:34:52 25° 0° (N) 607 1.4 -15.1°
